TimeEST,TemperatureF,Dew PointF,Humidity,Sea Level PressureIn,VisibilityMPH,Wind Direction,Wind SpeedMPH,Gust SpeedMPH,PrecipitationIn,Events,Conditions,WindDirDegrees,DateUTC
12:53 AM,46.0,39.9,79,30.43,8.0,ENE,4.6,-,N/A,,Clear,60,2012-11-12 05:53:00
1:53 AM,48.0,39.9,74,30.42,9.0,ENE,3.5,-,N/A,,Clear,70,2012-11-12 06:53:00
2:53 AM,45.0,39.9,82,30.40,8.0,ENE,3.5,-,N/A,,Clear,60,2012-11-12 07:53:00
3:53 AM,46.0,42.1,86,30.40,8.0,ENE,3.5,-,N/A,,Clear,60,2012-11-12 08:53:00
4:53 AM,42.1,39.9,92,30.41,6.0,East,4.6,-,N/A,,Clear,80,2012-11-12 09:53:00
5:53 AM,43.0,39.9,89,30.40,5.0,East,4.6,-,N/A,,Clear,80,2012-11-12 10:53:00
7:04 AM,44.6,42.8,93,30.40,3.0,East,4.6,-,N/A,,Clear,80,2012-11-12 12:04:00
7:53 AM,46.0,44.1,93,30.40,3.0,Calm,Calm,-,N/A,,Clear,0,2012-11-12 12:53:00
8:00 AM,46.4,44.6,93,30.40,1.8,East,3.5,-,N/A,,Clear,100,2012-11-12 13:00:00
8:07 AM,46.4,44.6,93,30.40,2.0,East,4.6,-,N/A,,Clear,80,2012-11-12 13:07:00
8:32 AM,51.8,48.2,88,30.39,3.0,SE,5.8,-,N/A,,Clear,140,2012-11-12 13:32:00
8:53 AM,52.0,48.0,86,30.40,3.0,SE,5.8,-,N/A,,Clear,140,2012-11-12 13:53:00
9:53 AM,54.0,50.0,86,30.39,3.0,SSE,8.1,-,N/A,,Clear,150,2012-11-12 14:53:00
10:04 AM,53.6,50.0,88,30.39,3.0,SSE,10.4,-,N/A,,Partly Cloudy,150,2012-11-12 15:04:00
10:53 AM,55.9,50.0,80,30.39,4.0,South,4.6,-,N/A,,Haze,170,2012-11-12 15:53:00
11:53 AM,57.0,51.1,81,30.35,5.0,South,4.6,-,N/A,,Haze,170,2012-11-12 16:53:00
12:53 PM,63.0,53.1,70,30.31,7.0,SSE,9.2,-,N/A,,Clear,160,2012-11-12 17:53:00
1:53 PM,64.0,53.1,67,30.28,10.0,South,12.7,19.6,N/A,,Partly Cloudy,180,2012-11-12 18:53:00
2:53 PM,66.0,53.1,63,30.25,10.0,South,11.5,20.7,N/A,,Clear,170,2012-11-12 19:53:00
3:53 PM,64.9,52.0,63,30.22,10.0,South,16.1,-,N/A,,Clear,170,2012-11-12 20:53:00
4:53 PM,63.0,53.1,70,30.20,10.0,SSE,8.1,-,N/A,,Clear,160,2012-11-12 21:53:00
5:53 PM,61.0,53.1,75,30.22,10.0,South,6.9,-,N/A,,Clear,180,2012-11-12 22:53:00
6:53 PM,62.1,53.1,72,30.19,10.0,South,10.4,-,N/A,,Mostly Cloudy,170,2012-11-12 23:53:00
7:53 PM,62.1,53.1,72,30.19,10.0,South,10.4,-,N/A,,Scattered Clouds,170,2012-11-13 00:53:00
8:53 PM,61.0,53.1,75,30.16,10.0,SSE,11.5,-,N/A,,Mostly Cloudy,160,2012-11-13 01:53:00
9:53 PM,61.0,54.0,78,30.15,10.0,South,11.5,21.9,N/A,,Overcast,180,2012-11-13 02:53:00
10:45 PM,60.8,55.4,82,30.14,10.0,South,10.4,-,0.00,,Overcast,180,2012-11-13 03:45:00
10:53 PM,61.0,55.0,81,30.14,10.0,South,10.4,19.6,0.00,,Overcast,170,2012-11-13 03:53:00
11:41 PM,60.8,55.4,82,30.12,10.0,South,16.1,19.6,0.00,,Overcast,190,2012-11-13 04:41:00
11:53 PM,62.1,57.0,84,30.12,10.0,South,12.7,21.9,0.00,,Overcast,180,2012-11-13 04:53:00